This demonstration page uses our WeatherBlox Daily Observations layout. Learn more.

Left ArrowRight Arrow

36.19886, -115.1175

Hourly Observations for August 12, 2017

Temp ( °F °C ) Dew Point ( °F °C ) Humidity (%) Winds ( mph kmh ) Pressure ( in mb ) Visibility ( mi km ) Precip ( " mm )
12:53 am 00:53 Clear 83 28.3 63 17.2 51 51 N N/A 29.80 1009 10 16 N/A
1:53 am 01:53 Clear 83 28.3 65 18.3 55 55 N N/A 29.80 1009 10 16 N/A
2:53 am 02:53 Clear 83 28.3 63 17.2 51 51 N 5 7 29.81 1010 10 16 N/A
3:53 am 03:53 Clear 82 27.8 62 16.7 51 51 NNW 3 6 29.83 1010 10 16 N/A
4:53 am 04:53 Clear 81 27.2 62 16.7 53 53 NW 5 7 29.83 1010 10 16 N/A
5:53 am 05:53 Clear 81 27.2 63 17.2 54 54 N 3 6 29.84 1011 10 16 N/A
6:53 am 06:53 Sunny 79 26.1 63 17.2 58 58 N N/A 29.85 1011 10 16 N/A
7:53 am 07:53 Sunny 86 30 60 15.6 42 42 N N/A 29.87 1011 10 16 N/A
8:53 am 08:53 Sunny 90 32.2 55 12.8 31 31 SE 6 9 29.87 1012 10 16 N/A
9:53 am 09:53 Sunny 93 33.9 55 12.8 28 28 E 8 13 29.87 1012 10 16 N/A
10:53 am 10:53 Sunny 94 34.4 55 12.8 27 27 SSE 9 15 29.86 1011 10 16 N/A
11:53 am 11:53 Sunny 98 36.7 56 13.3 24 24 SE 9 15 29.85 1011 10 16 N/A
12:53 pm 12:53 Sunny 100 37.8 55 12.8 22 22 E 5 7 29.81 1010 10 16 N/A
1:16 pm 13:16 Sunny with Nearby Thunderstorms 100 37.8 55 12.8 22 22 SE 10 17 29.65 1004 10 16 N/A
1:40 pm 13:40 Sunny 102 38.9 54 12.2 20 20 S 15 24 29.62 1003 10 16 N/A
1:53 pm 13:53 Sunny 102 38.9 53 11.7 19 19 SSW 8 13 29.79 1009 10 16 N/A
2:53 pm 14:53 Sunny 101 38.3 56 13.3 22 22 S 20 31 29.76 1008 10 16 N/A
3:53 pm 15:53 Sunny 102 38.9 56 13.3 22 22 ESE 16 26 29.74 1007 10 16 N/A
4:35 pm 16:35 Sunny with Nearby Thunderstorms 102 38.9 56 13.3 22 22 SSE 21 33 29.53 1000 10 16 N/A
4:53 pm 16:53 Sunny with Nearby Thunderstorms 101 38.3 56 13.3 22 22 SE 20 31 29.73 1007 10 16 N/A
5:00 pm 17:00 Sunny 101 38.3 56 13.3 22 22 SSE 18 30 29.56 1001 10 16 N/A
5:53 pm 17:53 Sunny 101 38.3 54 12.2 21 21 SE 16 26 29.72 1007 10 16 N/A
6:53 pm 18:53 Sunny 98 36.7 56 13.3 24 24 SSE 14 22 29.72 1007 10 16 N/A
7:53 pm 19:53 Clear 96 35.6 57 13.9 27 27 SE 5 7 29.74 1007 10 16 N/A
8:53 pm 20:53 Clear 94 34.4 58 14.4 30 30 ENE 12 19 29.77 1008 10 16 N/A
9:53 pm 21:53 Clear 90 32.2 58 14.4 34 34 E 17 28 29.78 1008 10 16 N/A
10:53 pm 22:53 Clear 89 31.7 57 13.9 34 34 E 18 30 29.79 1009 10 16 N/A
11:53 pm 23:53 Clear 89 31.7 57 13.9 34 34 ENE 5 7 29.81 1010 10 16 N/A

Powered by AerisWeather